Washington County, Minnesota, United States
Lat: 45.02N, Lon: 92.88W
Wx Zone: MNZ063
Local Info
Past Weather Observations for Today

NOTE: This archive is for the closest National Weather Service station to Washington County. Information may differ from the station used for current weather conditions.

Click here for Long-term Archive

Time Weather Temperature Dewpoint Humidity Pressure Winds Precip Visibility
07:53
Partly Cloudy
43°F / 6°C 39°F / 4°C 87% 30.21 in
(1023 mb)
NW 6.9 mph
(NW 11 kph)
- 8SM
07:16
Partly Cloudy
Fog And Mist
39°F / 4°C 37°F / 3°C 93% 30.21 in
(1023 mb)
W 4.6 mph
(W 7 kph)
- 4SM
06:53
Mostly Cloudy
Fog And Mist
37°F / 3°C 37°F / 3°C 100% 30.21 in
(1023 mb)
SSW 5.8 mph
(SSW 9 kph)
- 4SM
06:44
Mostly Cloudy
Fog And Mist
37°F / 3°C 37°F / 3°C 100% 30.21 in
(1023 mb)
NW 3.5 mph
(NW 6 kph)
- 3SM
06:25
Mostly Cloudy
Fog And Mist
36°F / 2°C 36°F / 2°C 100% 30.21 in
(1023 mb)
NNW 3.5 mph
(NNW 6 kph)
- 2SM
06:22
Mostly Cloudy
Fog And Mist
37°F / 3°C 37°F / 3°C 100% 30.21 in
(1023 mb)
Calm - 1 1/4SM
06:16
Mostly Cloudy
Fog
36°F / 2°C 36°F / 2°C 100% 30.21 in
(1023 mb)
Calm - 1/4SM
05:53
Overcast
Fog
36°F / 2°C 36°F / 2°C 100% 30.18 in
(1022 mb)
Calm - M1/4SM
05:39
Overcast
Fog And Mist
36°F / 2°C 34°F / 1°C 93% 30.18 in
(1022 mb)
Calm - 1SM
05:28
Overcast
Fog And Mist
36°F / 2°C 36°F / 2°C 100% 30.18 in
(1022 mb)
Calm - 1 1/2SM
05:20
Mostly Cloudy
Fog And Mist
36°F / 2°C 36°F / 2°C 100% 30.18 in
(1022 mb)
Calm - 2SM
05:18
Mostly Cloudy
Fog And Mist
34°F / 1°C 34°F / 1°C 100% 30.18 in
(1022 mb)
Calm - 1 3/4SM
05:16
Mostly Cloudy
Fog And Mist
36°F / 2°C 36°F / 2°C 100% 30.18 in
(1022 mb)
Calm - 1SM
05:04
Partly Cloudy
Fog
36°F / 2°C 34°F / 1°C 93% 30.18 in
(1022 mb)
Calm - 1/2SM
04:57
Obscured
Fog And Mist
36°F / 2°C 34°F / 1°C 93% 30.18 in
(1022 mb)
Calm - 1SM
04:53
Partly Cloudy
Fog And Mist
34°F / 1°C 34°F / 1°C 100% 30.18 in
(1022 mb)
Calm - 2 1/2SM
04:17
Partly Cloudy
Fog And Mist
36°F / 2°C 34°F / 1°C 93% 30.18 in
(1022 mb)
SSW 4.6 mph
(SSW 7 kph)
- 4SM
03:53
Mostly Cloudy
Fog And Mist
34°F / 1°C 34°F / 1°C 100% 30.18 in
(1022 mb)
WNW 3.5 mph
(WNW 6 kph)
- 4SM
02:53
Clear
36°F / 2°C 34°F / 1°C 93% 30.18 in
(1022 mb)
Calm - 7SM
01:53
Clear
36°F / 2°C 36°F / 2°C 100% 30.15 in
(1021 mb)
Calm - 7SM
01:41
Clear
Fog And Mist
36°F / 2°C 36°F / 2°C 100% 30.15 in
(1021 mb)
Calm - 4SM
01:32
Clear
Fog And Mist
36°F / 2°C 34°F / 1°C 93% 30.15 in
(1021 mb)
Calm - 1 3/4SM
00:53
Partly Cloudy
37°F / 3°C 36°F / 2°C 93% 30.15 in
(1021 mb)
Calm - 10SM
Time Weather Temperature Dewpoint Humidity Pressure Winds Precip Visibility


Weather for websites

WeatherForYou.com, LLC is not responsible for any damages or problems caused by this service. Current weather conditions are obtained from the closest station including government and personal stations which may have varying degrees of accuracy. Weather forecasts are derived from the NOAA NDFD. Like all things, this site belongs to Jesus Christ... He just trusts us to maintain it. If you have any questions or comments email webmaster@weatherforyou.com

Copyright © 2016, WeatherForYou.com LLC. All rights reserved.